Weather History for Minneapolis, MN

Change the Weather History Date:

Saturday, June 29, 2013

  Actual Average Record
Temperature  
Mean Temperature 70 °F 73 °F  
Max Temperature 77 °F 83 °F 102 °F (1931)
Min Temperature 63 °F 63 °F 47 °F (1924)
Degree Days  
Heating Degree Days 0 0  
Month to date heating degree days 42 44  
Since 1 June heating degree days 42 44  
Since 1 July heating degree days 7708 7580  
Cooling Degree Days 5 8  
Month to date cooling degree days 159 151  
Year to date cooling degree days 212 193  
Since 1 June cooling degree days 159 151  
Growing Degree Days 20 (Base 50)    
Moisture  
Dew Point 58 °F    
Average Humidity 69    
Maximum Humidity 100    
Minimum Humidity 38    
Precipitation  
Precipitation 0.38 in 0.14 in 3.48 in (1877)
Month to date precipitation 5.17 4.11  
Year to date precipitation 20.86 13.69  
Snow  
Snow 0.00 in 0.00 in 0.00 in ()
Month to date snowfall 0.0 0.0  
Since 1 June snowfall 0.0 0.0  
Since 1 July snowfall 67.7 54.4  
Snow Depth 0.00 in    
Sea Level Pressure  
Sea Level Pressure 29.84 in    
Wind  
Wind Speed 12 mph (North)    
Max Wind Speed 22 mph    
Max Gust Speed 32 mph    
Visibility 8 miles    
Events Rain    
T = Trace of Precipitation, MM = Missing Value Source: NWS Daily Summary

Daily Weather History Graph

Daily Weather History Graph

Search for Another Location

Airport:

Trip Planner

Search our weather history database for the weather conditions in past years. The results will help you decide how hot, cold, wet, or windy it might be!

Date:

Astronomy

Jun. 29, 2013 Rise Set
Actual Time 5:29 AM CDT 9:03 PM CDT
Civil Twilight 4:52 AM CDT 9:40 PM CDT
Nautical Twilight 4:03 AM CDT 10:29 PM CDT
Astronomical Twilight 2:58 AM CDT 11:33 PM CDT
Moon 12:14 AM CDT (6/29) 1:01 PM CDT (6/29)
Length of Visible Light 16h 47m
Length of Day
15h 33m
Waning Gibbous, 55% of the Moon is Illuminated
Jun 29
Waning Gibbous
Jun 29
Last Quarter
Jul 8
New
Jul 15
First Quarter
Jul 22
Full

Hourly Weather History & Observations

Time (CDT) Temp. Dew Point Humidity Pressure Visibility Wind Dir Wind Speed Gust Speed Precip Events Conditions
12:53 AM 66.9 °F 63.0 °F 87% 29.77 in 10.0 mi NW 6.9 mph - N/A   Overcast
1:53 AM 66.0 °F 63.0 °F 90% 29.76 in 10.0 mi NNW 6.9 mph - N/A   Overcast
2:15 AM 66.2 °F 62.6 °F 88% 29.77 in 10.0 mi NNW 6.9 mph - N/A   Overcast
2:53 AM 66.0 °F 63.0 °F 90% 29.75 in 10.0 mi NW 5.8 mph - N/A   Overcast
3:44 AM 66.2 °F 62.6 °F 88% 29.76 in 2.0 mi North 8.1 mph - 0.00 in Rain Light Rain
3:47 AM 66.2 °F 62.6 °F 88% 29.76 in 1.2 mi North 8.1 mph - 0.02 in Rain Heavy Rain
3:53 AM 64.9 °F 63.0 °F 93% 29.75 in 1.2 mi NE 9.2 mph - 0.10 in Rain Heavy Rain
3:57 AM 64.4 °F 62.6 °F 94% 29.76 in 2.0 mi NE 6.9 mph - 0.05 in Rain Heavy Rain
4:02 AM 64.4 °F 62.6 °F 94% 29.76 in 3.0 mi North 5.8 mph - 0.09 in Rain Rain
4:53 AM 63.0 °F 62.1 °F 97% 29.76 in 6.0 mi NNE 9.2 mph - 0.18 in Rain Light Rain
5:08 AM 62.6 °F 62.6 °F 100% 29.77 in 5.0 mi NNE 10.4 mph - 0.02 in Rain Rain
5:10 AM 62.6 °F 62.6 °F 100% 29.77 in 3.0 mi NNE 11.5 mph - 0.03 in Rain Rain
5:53 AM 63.0 °F 61.0 °F 93% 29.78 in 6.0 mi North 8.1 mph - 0.10 in Rain Light Rain
6:22 AM 62.6 °F 62.6 °F 100% 29.80 in 10.0 mi North 8.1 mph - 0.00 in   Overcast
6:53 AM 63.0 °F 62.1 °F 97% 29.81 in 10.0 mi North 10.4 mph - 0.00 in   Overcast
7:23 AM 64.4 °F 60.8 °F 88% 29.82 in 10.0 mi North 10.4 mph - N/A   Overcast
7:37 AM 62.6 °F 60.8 °F 94% 29.82 in 10.0 mi North 10.4 mph - N/A   Overcast
7:53 AM 64.0 °F 61.0 °F 90% 29.83 in 10.0 mi North 13.8 mph - N/A   Overcast
8:53 AM 64.0 °F 61.0 °F 90% 29.84 in 10.0 mi North 11.5 mph - N/A   Overcast
9:53 AM 68.0 °F 61.0 °F 78% 29.86 in 10.0 mi North 11.5 mph - N/A   Overcast
10:53 AM 71.1 °F 59.0 °F 66% 29.86 in 10.0 mi North 15.0 mph - N/A   Mostly Cloudy
11:53 AM 72.0 °F 57.0 °F 59% 29.87 in 10.0 mi NNE 15.0 mph 21.9 mph N/A   Mostly Cloudy
12:53 PM 73.9 °F 57.9 °F 57% 29.88 in 10.0 mi North 16.1 mph 21.9 mph N/A   Scattered Clouds
1:53 PM 75.0 °F 57.0 °F 53% 29.87 in 10.0 mi North 17.3 mph - N/A   Mostly Cloudy
2:53 PM 75.0 °F 57.0 °F 53% 29.88 in 10.0 mi North 16.1 mph 21.9 mph N/A   Overcast
3:53 PM 75.9 °F 54.0 °F 46% 29.88 in 10.0 mi NNE 13.8 mph 24.2 mph N/A   Mostly Cloudy
4:53 PM 77.0 °F 50.0 °F 39% 29.89 in 10.0 mi NNE 17.3 mph 26.5 mph N/A   Mostly Cloudy
5:53 PM 75.0 °F 48.0 °F 38% 29.90 in 10.0 mi NNE 18.4 mph - N/A   Mostly Cloudy
6:53 PM 73.9 °F 51.1 °F 45% 29.91 in 10.0 mi NNE 12.7 mph - N/A   Mostly Cloudy
7:53 PM 73.0 °F 48.9 °F 42% 29.93 in 10.0 mi NNE 13.8 mph - N/A   Mostly Cloudy
8:53 PM 70.0 °F 51.1 °F 51% 29.95 in 10.0 mi North 11.5 mph - N/A   Mostly Cloudy
9:53 PM 69.1 °F 50.0 °F 51% 29.96 in 10.0 mi NNE 11.5 mph 23.0 mph N/A   Mostly Cloudy
10:53 PM 66.0 °F 52.0 °F 60% 29.97 in 10.0 mi Variable 6.9 mph - N/A   Mostly Cloudy
11:53 PM 66.0 °F 52.0 °F 60% 29.98 in 10.0 mi NNE 9.2 mph - N/A   Scattered Clouds